[[{"header":{"parameterUnit":"m.s-1","parameterCategory":1,"la1":30.2991,"la2":30.254,"lo1":-89.0895,"lo2":-89.0444,"dy":0.0017,"dx":0.0017,"nx":28,"ny":28,"refTime":"2025-07-17T09:00:00:Z","depth":0,"parameterNumber":2,"parameterNumberName":"U-component_of_WINDS"},"data":[0,0,0,0,0,0,0,0,0,0,0,0,0,0,0,0,0,0,0,0,0,0,0,0,0,0,0,0,0,0,0,0,0,0,0,0,0,0,0,0,0,0,0,0,0,0,0,0,0,0,0,0,0,0,0,0,0,0,0.3678,0.3679,0,0.3737,0.3738,0.3739,0.3741,0.374,0.374,0.3739,0.3798,0.3801,0.3803,0,0,0,0,0,0,0,0,0,0,0,0,0,0.3566,0.3568,0.3678,0.3679,0.368,0.3737,0.3738,0.3739,0.3741,0.374,0.3739,0.3739,0.3798,0.38,0.3803,0,0,0,0,0,0,0,0,0,0,0,0,0,0.3619,0.3569,0.3678,0.3688,0.3689,0.3737,0.3738,0.3739,0.3741,0.374,0.3739,0.3738,0.3797,0.38,0.3803,0.3845,0,0,0.3814,0.3815,0,0,0,0,0,0,0,0,0.3616,0.3623,0.3686,0.3687,0.3689,0.3731,0.372,0.3775,0.3741,0.3721,0.3739,0.3738,0.3777,0.3782,0.3795,0.3848,0.385,0.3814,0.3816,0.3817,0.3818,0,0,0,0,0,0,0,0.3612,0.362,0.3702,0.3687,0.3689,0.3689,0.3695,0.373,0.3754,0.3723,0.3723,0.373,0.3777,0.3792,0.3796,0.3851,0.3814,0.3817,0.3819,0.382,0.3939,0.394,0,0,0,0,0,0,0.3607,0.3617,0.37,0.3703,0.3649,0.3692,0.3699,0.3718,0.3754,0.3758,0.3731,0.373,0.3786,0.3792,0.3798,0.3848,0.3817,0.3821,0.3822,0.3938,0.3939,0.3941,0,0,0,0,0,0,0.3604,0.3614,0.3697,0.366,0.3671,0.3695,0.3717,0.372,0.3734,0.376,0.3764,0.3742,0.3786,0.3794,0.3833,0.385,0.3822,0.3825,0.3937,0.3938,0.394,0.3949,0,0,0,0,0,0,0.3601,0.3613,0.363,0.3661,0.3673,0.3732,0.3718,0.3722,0.374,0.374,0.3771,0.3775,0.3786,0.3828,0.3836,0.3854,0.3828,0.3935,0.3937,0.3939,0.3947,0.395,0.3953,0,0,0,0,0,0.3597,0.363,0.3631,0.3641,0.3694,0.3733,0.374,0.3751,0.3742,0.3758,0.3774,0.3774,0.3847,0.3832,0.3841,0.3861,0.3934,0.3937,0.3939,0.3945,0.395,0.3953,0,0,0,0,0,0,0.3601,0.3635,0.3635,0.368,0.3703,0.3733,0.3754,0.3756,0.3782,0.3781,0.3794,0.3801,0.384,0.3854,0.3837,0.3902,0.3889,0.3894,0.3891,0.3895,0.3898,0.3894,0.383,0,0,0,0,0,0.3607,0.3636,0.3663,0.37,0.3711,0.3731,0.3748,0.3755,0.378,0.3789,0.3809,0.3832,0.386,0.3879,0.3906,0.3949,0.3955,0.3967,0.397,0.3973,0.3976,0.3998,0.4003,0.3949,0.3949,0.3949,0,0,0.362,0.3641,0.3659,0.3701,0.372,0.3748,0.3739,0.377,0.3791,0.3794,0.3832,0.3847,0.3874,0.3915,0.3934,0.3928,0.3993,0.3976,0.3978,0.398,0.4001,0.4006,0.4011,0.3951,0.3951,0.395,0,0,0.3657,0.3677,0.3709,0.3728,0.3756,0.3769,0.3776,0.3806,0.3815,0.3854,0.3856,0.3881,0.393,0.3948,0.3964,0.4007,0.4007,0.4016,0.4032,0.4054,0.4058,0.4062,0.4075,0.408,0.4019,0.4019,0.4019,0,0.3669,0.3712,0.3725,0.3755,0.3773,0.3777,0.3808,0.3826,0.3862,0.3874,0.3867,0.3927,0.3946,0.399,0.4,0.4014,0.4022,0.4012,0.4056,0.406,0.4064,0.4077,0.4082,0.402,0.402,0.402,0.402,0,0.3725,0.3755,0.3777,0.3811,0.3831,0.3862,0.3878,0.3897,0.3902,0.3915,0.3953,0.3975,0.4006,0.4018,0.4023,0.4062,0.4058,0.4054,0.4041,0.407,0.4082,0.4087,0.4021,0.4021,0.402,0.402,0,0,0.3767,0.3806,0.3814,0.3829,0.386,0.3883,0.3914,0.3944,0.396,0.3984,0.4009,0.4049,0.4045,0.4063,0.4071,0.4089,0.412,0.4083,0.4084,0.4088,0.4162,0.4164,0.417,0.412,0.4121,0.4122,0.4159,0,0.3806,0.3861,0.3872,0.3918,0.3945,0.3949,0.3975,0.3996,0.4009,0.4033,0.4047,0.4074,0.4068,0.4078,0.4097,0.4112,0.4135,0.411,0.4142,0.4143,0.4134,0.4177,0.418,0.4214,0.4165,0.4165,0.4166,0,0.386,0.3885,0.3934,0.396,0.3972,0.3996,0.4023,0.4047,0.4071,0.4078,0.4098,0.4103,0.4133,0.412,0.4161,0.4144,0.4158,0.4167,0.4169,0.4171,0.4156,0.4179,0.4225,0.423,0.4174,0.4174,0.4173,0,0.3883,0.393,0.3965,0.3978,0.401,0.4026,0.4039,0.4063,0.4079,0.4104,0.4115,0.4142,0.4157,0.4178,0.4189,0.4179,0.4229,0.4217,0.4235,0.4235,0.4245,0.4244,0.4293,0.4256,0.4256,0.4256,0.4256,0,0.3926,0.3955,0.3975,0.3997,0.4029,0.4042,0.4073,0.4087,0.4107,0.4131,0.4136,0.4157,0.4172,0.4196,0.4205,0.4237,0.4244,0.425,0.4252,0.4249,0.4248,0.4258,0.4255,0.4257,0.4257,0.4257,0.4257,0,0.3957,0.3972,0.401,0.4037,0.4044,0.4067,0.409,0.411,0.4122,0.4151,0.4159,0.4178,0.4206,0.422,0.4254,0.426,0.4296,0.4297,0.4288,0.4288,0.4305,0.4303,0.4361,0.4368,0.4328,0.4328,0.4328,0,0.3983,0.4006,0.4034,0.405,0.4065,0.4091,0.4108,0.412,0.4138,0.4166,0.4182,0.421,0.4233,0.4277,0.4293,0.432,0.4321,0.4339,0.4324,0.432,0.4319,0.4317,0.4319,0.4341,0.4342,0.4342,0.4342,0,0.4026,0.4032,0.4057,0.4083,0.4104,0.4125,0.4147,0.416,0.4175,0.4194,0.4223,0.424,0.4275,0.4302,0.433,0.4343,0.4345,0.4347,0.4352,0.4349,0.4342,0.4344,0.4293,0.4345,0.4345,0.4345,0.4344,0.4344,0.4055,0.4074,0.4097,0.4124,0.4141,0.4161,0.4181,0.4195,0.4219,0.4248,0.4254,0.4283,0.4305,0.4342,0.4356,0.4379,0.4375,0.4383,0.4385,0.4386,0.4386,0.4339,0.4384,0.4384,0.4384,0.4384,0.4384,0,0.4097,0.4111,0.4136,0.4165,0.4186,0.4186,0.4209,0.4226,0.4252,0.4273,0.4295,0.4327,0.4353,0.4371,0.4397,0.4412,0.4413,0.4418,0.4416,0.4419,0.4389,0.4381,0.4416,0.4416,0.4416,0.4416,0.4416,0.4416,0.4121,0.4154,0.4162,0.4203,0.4217,0.4246,0.4259,0.4277,0.4293,0.4328,0.4349,0.4361,0.438,0.4408,0.4431,0.4436,0.4444,0.4449,0.4453,0.4425,0.4421,0.4418,0.4411,0.4451,0.4451,0.4481,0.4482,0.4482]},{"header":{"parameterUnit":"m.s-1","parameterCategory":1,"la1":30.2991,"la2":30.254,"lo1":-89.0895,"lo2":-89.0444,"dy":0.0017,"dx":0.0017,"nx":28,"ny":28,"refTime":"2025-07-17T09:00:00:Z","depth":0,"parameterNumber":3,"parameterNumberName":"V-component_of_WINDS"},"data":[0,0,0,0,0,0,0,0,0,0,0,0,0,0,0,0,0,0,0,0,0,0,0,0,0,0,0,0,0,0,0,0,0,0,0,0,0,0,0,0,0,0,0,0,0,0,0,0,0,0,0,0,0,0,0,0,0,0,5.1265,5.1267,0,5.1415,5.1417,5.1419,5.139,5.1388,5.1385,5.1382,5.153,5.1537,5.1543,0,0,0,0,0,0,0,0,0,0,0,0,0,5.0945,5.0951,5.1265,5.1267,5.1269,5.1415,5.1417,5.1419,5.1391,5.1387,5.1384,5.1381,5.1528,5.1536,5.1544,0,0,0,0,0,0,0,0,0,0,0,0,0,5.1089,5.0953,5.1265,5.1272,5.1275,5.1414,5.1417,5.1419,5.1391,5.1387,5.1383,5.138,5.1526,5.1535,5.1545,5.1684,0,0,5.1574,5.1578,0,0,0,0,0,0,0,0,5.108,5.11,5.1269,5.1272,5.1275,5.138,5.1358,5.1508,5.1392,5.1347,5.1382,5.1378,5.1483,5.1496,5.1533,5.1691,5.1698,5.1575,5.1581,5.1585,5.1588,0,0,0,0,0,0,0,5.1071,5.1094,5.1324,5.1272,5.1275,5.1265,5.1281,5.1387,5.1435,5.135,5.1349,5.1367,5.1484,5.1524,5.1536,5.17,5.1575,5.1583,5.1589,5.1593,5.1976,5.198,0,0,0,0,0,0,5.1059,5.1086,5.1319,5.1329,5.1166,5.1275,5.1292,5.135,5.1434,5.1443,5.1371,5.1365,5.1509,5.1525,5.1541,5.1707,5.1585,5.1594,5.1599,5.1971,5.1977,5.1981,0,0,0,0,0,0,5.1052,5.108,5.1313,5.1207,5.1236,5.1284,5.1349,5.1355,5.1395,5.145,5.1457,5.1403,5.1507,5.1528,5.1648,5.1712,5.1598,5.1607,5.1966,5.1973,5.1979,5.2043,0,0,0,0,0,0,5.1043,5.1078,5.1134,5.1208,5.1242,5.1421,5.1354,5.1361,5.1412,5.1407,5.1482,5.149,5.1505,5.1634,5.1658,5.1723,5.1615,5.1961,5.1969,5.1977,5.2035,5.2051,5.2064,0,0,0,0,0,5.1032,5.1146,5.1137,5.1165,5.1313,5.1425,5.1443,5.146,5.1418,5.1473,5.1507,5.1488,5.1702,5.1647,5.1673,5.1743,5.1957,5.1967,5.1976,5.2029,5.2048,5.2064,0,0,0,0,0,0,5.1076,5.1156,5.1147,5.1289,5.135,5.142,5.149,5.148,5.1553,5.1545,5.156,5.1577,5.1699,5.1733,5.1671,5.188,5.1823,5.1838,5.1853,5.1872,5.1886,5.1874,5.1623,0,0,0,0,0,5.1103,5.119,5.1253,5.1372,5.1403,5.1441,5.149,5.1498,5.1561,5.1587,5.163,5.1691,5.1771,5.1823,5.1901,5.204,5.2054,5.21,5.2115,5.2126,5.2139,5.2211,5.2231,5.2014,5.2014,5.2013,0,0,5.1158,5.1212,5.1266,5.1382,5.143,5.1516,5.1463,5.1558,5.162,5.16,5.1717,5.175,5.1819,5.1948,5.2007,5.198,5.2202,5.2139,5.2148,5.2154,5.2223,5.2244,5.2262,5.202,5.2019,5.2018,0,0,5.1302,5.1353,5.1456,5.1505,5.158,5.1604,5.1628,5.1699,5.1721,5.1838,5.1824,5.1897,5.2037,5.2085,5.2128,5.2286,5.227,5.2311,5.2386,5.2456,5.2473,5.2488,5.2541,5.256,5.2324,5.2324,5.2324,0,5.1361,5.1492,5.1509,5.1605,5.1654,5.1641,5.1742,5.1789,5.1884,5.1917,5.1886,5.2058,5.2103,5.2242,5.228,5.2317,5.2342,5.2302,5.2469,5.2485,5.2499,5.255,5.257,5.2328,5.2328,5.2327,5.2327,0,5.1559,5.165,5.1723,5.1816,5.1874,5.1972,5.2001,5.2057,5.2058,5.2085,5.2202,5.2255,5.2341,5.2375,5.2378,5.2513,5.2494,5.2466,5.2408,5.2524,5.2571,5.2591,5.2334,5.2333,5.2331,5.233,0,0,5.1736,5.1835,5.1862,5.1902,5.1982,5.2051,5.2146,5.2232,5.2278,5.2343,5.2421,5.2538,5.2512,5.256,5.2567,5.2629,5.2747,5.2593,5.2595,5.2617,5.2895,5.2914,5.2936,5.2737,5.2741,5.2744,5.2888,0,5.1885,5.2056,5.2072,5.2224,5.2306,5.2293,5.2375,5.2431,5.2457,5.2528,5.2557,5.2638,5.2599,5.2627,5.2688,5.272,5.2802,5.271,5.2806,5.2809,5.2788,5.2962,5.2983,5.3117,5.2907,5.2911,5.2913,0,5.2082,5.2154,5.2314,5.2379,5.2413,5.2488,5.2565,5.2635,5.2696,5.2711,5.2763,5.2761,5.2856,5.2796,5.2924,5.286,5.2901,5.2922,5.2927,5.2935,5.2867,5.2972,5.3161,5.318,5.2943,5.2941,5.2939,0,5.2191,5.2327,5.244,5.2475,5.2555,5.2606,5.2641,5.2699,5.2748,5.2815,5.2846,5.2923,5.2965,5.3022,5.304,5.2995,5.3166,5.3108,5.3177,5.3177,5.3213,5.321,5.3408,5.3243,5.3243,5.3242,5.3242,0,5.2355,5.2452,5.2489,5.2558,5.2666,5.2682,5.2787,5.2819,5.287,5.2942,5.2936,5.3003,5.3023,5.3093,5.3107,5.3208,5.3228,5.3239,5.3242,5.3239,5.3237,5.3264,5.3254,5.3248,5.3247,5.3245,5.3245,0,5.2495,5.2524,5.2645,5.271,5.2728,5.2804,5.2858,5.2922,5.2947,5.3038,5.306,5.3098,5.318,5.3203,5.3301,5.331,5.3429,5.3423,5.3408,5.3407,5.3474,5.3467,5.3695,5.3724,5.3542,5.3544,5.3545,0,5.2596,5.2671,5.2743,5.2792,5.2829,5.2908,5.2958,5.2975,5.3027,5.3101,5.3155,5.3236,5.3302,5.3432,5.3467,5.354,5.3535,5.361,5.3546,5.354,5.3533,5.3527,5.3533,5.3621,5.3623,5.3625,5.3626,0,5.2772,5.2782,5.2855,5.2933,5.2992,5.3054,5.3113,5.3152,5.3178,5.3235,5.3319,5.337,5.347,5.3549,5.3623,5.3656,5.3644,5.3646,5.3665,5.3662,5.3649,5.3654,5.3438,5.364,5.3639,5.3638,5.3637,5.3637,5.2894,5.2958,5.3018,5.3099,5.3145,5.3199,5.3262,5.3294,5.3365,5.3448,5.3454,5.3544,5.3599,5.3698,5.3735,5.3803,5.3781,5.381,5.3816,5.3823,5.3827,5.364,5.3817,5.3816,5.3816,5.3816,5.3816,0,5.3066,5.3104,5.3178,5.3261,5.3323,5.3309,5.3372,5.3424,5.3504,5.3558,5.3622,5.3716,5.3792,5.3832,5.3906,5.3953,5.3949,5.3972,5.3967,5.3974,5.3844,5.3819,5.3973,5.3973,5.3973,5.3973,5.3973,5.3973,5.3164,5.327,5.3287,5.3415,5.3451,5.3541,5.3577,5.3626,5.3669,5.3775,5.3838,5.3864,5.3911,5.3989,5.4056,5.4065,5.4092,5.4117,5.4123,5.4,5.3984,5.3968,5.3944,5.4123,5.4123,5.4247,5.4248,5.4249]}]]